Погода в Эспоо

Финляндия     60°12′24″N   24°39′20″E
темп.,
°C
ветер,
м/с
пор.,
м/с
влажн.,
%
обл.,
%
осадки,
мм/ч
давл.,
гПа
погр.,
м
11 мая, вт
вт1100:00+13ююз51573100 0.0 1016506
03:00+11ю4148472 0.0 1017406
06:00+11ю3128814 0.0 1017361
09:00+14ю4117896 0.0 1018464
12:00+18ю5106248 0.0 1018767
15:00+20ююз510538 0.0 10181068
18:00+20юз39539 0.0 1019907
21:00+14ююв22765 0.0 101936
12 мая, ср
ср1200:00+12ююв22806 0.0 102027
03:00+10ююв298616 0.0 1020157
06:00+9ююв29865 0.0 1020174
09:00+14ююв376310 0.0 1020292
12:00+18ююв474831 0.0 1020661
15:00+20юв374418 0.0 1020908
18:00+20вюв35485 0.0 1018457
21:00+15в257259 0.0 101888
13 мая, чт
чт1300:00+13ююв298534 0.0 1018156
03:00+12вюв23870 0.0 101755
06:00+11всв23901 0.0 101665
09:00+18в376189 0.0 1015431
12:00+19в47599 0.0 1014808
15:00+18вюв576516 0.0 1013896
18:00+17вюв475710 0.0 1012812
21:00+13в27728 0.0 1012180
14 мая, пт
пт1400:00+12всв2373100 0.0 101257
03:00+11вюв2475100 0.1 101195
06:00+10ююв2591100 0.1 1010152
09:00+10юз1297100 3.6 1010130
12:00+11юв238932 0.9 1010391
15:00+16вюв455828 0.9 10101157
18:00+11юв487998 0.0 1010395
21:00+10вюв258891 0.0 1010242
15 мая, сб
сб1500:00+10всв258982 0.0 1009175
03:00+10всв249061 0.0 1008103
06:00+11св258699 0.0 1007156
09:00+12всв258251 0.0 1006221
12:00+15вюв3470100 0.4 1006519
15:00+19юв335696 0.4 10051014
18:00+17ю326243 0.1 1005694
21:00+14юз248193 0.2 1005108